Rbgn^[z[y[W
メイン
   新天体発見情報
     Comet C/2020 X2 (ATLAS)
投稿するにはまず登録を

スレッド表示 | 新しいものから 前のトピック | 次のトピック | 下へ
投稿者 スレッド
佐藤裕久
投稿日時: 2020-12-30 0:13
モデレータ
登録日: 2005-6-12
居住地: 日本
投稿: 2173
オンライン
Comet C/2020 X2 (ATLAS)

12月10日UT、ハワイ Mauna Loaにある小惑星地球衝突最終警報システム Asteroid Terrestrial-
impact Last Alert System (ATLAS)調査プログラムのコースに0.5-m f/2 Schmidt反射望遠
鏡で得たCCD画像から彗星が発見された。
1日後、A. Heinzeは、小惑星センターへこの彗星は集光した4".5のコマが見えると伝えた。
小惑星センターのPCCP webpageに公表後、佐藤英貴氏(東京都文京区, 12月12.35日UT,60秒
露出4枚のスタック, 0.43-m f/6.8 アストログラフ, Mayhill近郊, ニューメキシコ州, 
遠隔操作:強く集光し6"×12"に伸びたコマが見えるが尾はない。7".6の円形範囲で測定した
光度は18.4等であった)らCCD位置観測者によって彗星状と観測された。

彗星機能の報告は次の通り:

OC   Date        Reporter           Coma    Tail    PA          Exposures
G96  2020-11-23  D. Rankin          5".7    8"      270-277    
H06  2020-12-12  H. Sato           12"                            4x60s
I89  2020-12-13  A. Valvasori       7".5                         12x120x

発見位置は次のとおり、

     2020 UT             R.A. (2000) Decl.       Mag.
     Dec. 10.50409    6 58 30.87   +19 19 55.0   18.2
          10.50701    6 58 30.85   +19 19 55.7   18.7
          10.54240    6 58 30.02   +19 20 05.2   18.7
          10.54516    6 58 29.87   +19 20 05.5   18.9

MPCの楕円軌道要素、位置推算表は次のとおり、

Orbital elements:
    C/2020 X2 (ATLAS)                                                           
Epoch 2020 Nov. 7.0 TT = JDT 2459160.5                                          
T 2020 Nov. 15.89718 TT                                 Veres                   
q   3.8285196            (2000.0)            P               Q                  
n   0.01487300     Peri.  347.35844     -0.05969362     -0.95178466             
a  16.3758422      Node   105.45882     +0.94087612     -0.15434236             
e   0.7662093      Incl.   18.19172     +0.33344984     +0.26511204             
P  66.3                                                                         
From 67 observations 2020 Sept. 25-Dec. 14, mean residual 0".4.                 
                                                                                
    C/2020 X2 (ATLAS)                                                           
Epoch 2087 Dec. 26.0 TT = JDT 2483680.5                                         
T 2087 Dec. 15.68746 TT                                 Veres                   
q   3.8449378            (2000.0)            P               Q                  
n   0.01463332     Peri.  347.66937     -0.05975728     -0.95206137             
a  16.5541735      Node   105.17060     +0.94022039     -0.15463325             
e   0.7677360      Incl.   18.11025     +0.33528298     +0.26394640             
P  67.4                                                                         
From 67 observations 2020 Sept. 25-Dec. 14, mean residual 0".4.                 
                                                                                
    C/2020 X2 (ATLAS)                                                           
Epoch 2020 Dec. 17.0 TT = JDT 2459200.5                                         
T 2020 Nov. 15.88476 TT                                 Veres                   
q   3.8285172            (2000.0)            P               Q                  
n   0.01486921     Peri.  347.35617     -0.05965715     -0.95178760             
a  16.3786262      Node   105.45889     +0.94088201     -0.15430567             
e   0.7662492      Incl.   18.19160     +0.33343974     +0.26512286             
P  66.3                                                                         
From 67 observations 2020 Sept. 25-Dec. 14, mean residual 0".4.                 
                                                                                
Ephemeris:
Date    TT    R. A. (2000) Decl.     Delta      r    Elong.  Phase   m1
2020 11 14    07 03 15.5 +17 44 11   3.1561  3.8285   126.5    12.0  18.9
...
2020 11 29    07 01 56.5 +18 33 02   3.0037  3.8298   142.0     9.1  18.8
...
2020 12 07    06 59 45.4 +19 04 52   2.9423  3.8320   150.7     7.2  18.8
...
2020 12 13    06 57 32.2 +19 31 00   2.9068  3.8342   157.4     5.7  18.8
2020 12 14    06 57 07.5 +19 35 31   2.9018  3.8346   158.5     5.4  18.8
2020 12 15    06 56 42.1 +19 40 05   2.8971  3.8351   159.6     5.1  18.7
...
2020 12 21    06 53 57.9 +20 08 16   2.8750  3.8380   166.4     3.5  18.7
...
2020 12 29    06 49 56.6 +20 47 21   2.8620  3.8428   175.3     1.2  18.7
...
2021 01 13    06 42 12.7 +22 01 45   2.8898  3.8545   167.0     3.3  18.8

(MPEC 2020-X156、CBET 4896)

スレッド表示 | 新しいものから 前のトピック | 次のトピック | トップ

投稿するにはまず登録を
 
© 1999 Tsutomu Seki.